{"data":{"norad_id":65760,"intl_designator":"2025-216AC","name":"STARLINK-34890","alt_names":[],"object_type":"PAYLOAD","status":"ACTIVE","operator":null,"country":"US","launch_date":"2025-09-25","launch_site_code":"AFETR","launch_vehicle":null,"mission":null,"orbit_class":"UNKNOWN","rcs_meters":null,"size_class":null,"mass_kg":null,"dimensions":null,"purposes":["comms"],"wikipedia_slug":null,"has_3d_model":false,"image_url":null,"decayed_at":null,"tle_current":{"epoch":"2026-09-19T22:59:05.820864Z","epoch_age_seconds":155628,"freshness":"FRESH","line1":"1 65760U 25216AC  26262.95770626  .00016800  00000+0  50718-3 0  9998","line2":"2 65760  53.1574 147.9282 0000799  82.8457 277.2636 15.34404140 56317","mean_motion":15.3440414,"eccentricity":7.99e-5,"inclination_deg":53.1574,"raan_deg":147.9282,"arg_perigee_deg":82.8457,"mean_anomaly_deg":277.2636,"bstar":0.00050718,"rev_number":5631,"period_min":93.847504869219,"perigee_km":462.14435313028,"apogee_km":463.23751743434,"semimajor_km":6840.8279352823,"source":"CELESTRAK","updated_at":"2026-09-21T09:00:35.712525Z"}}}